Shelton, WA
on Monday, November 12, 2012

Monday
Previous Day Next Day
Daily Summary
 ActualAverage (KOLM)Record (KOLM)
Temperature
Mean Temperature °F 44°F  
Max Temperature 52°F 51°F 61°F (1953)
Min Temperature 41°F 37°F 12°F (1955)
Degree Days
Heating Degree Days 18 21  
Month to date heating degree days 236  
Since 1 July heating degree days 1030  
Cooling Degree Days 0 0  
Month to date cooling degree days 0  
Year to date cooling degree days 106  
Moisture
Dew Point 46°F   
Average Humidity 96    
Maximum Humidity 100    
Minimum Humidity 88    
Precipitation
Precipitation 0.45 in 0.30 in 2.89 in (1949)
Month to date precipitation 3.17  
Year to date precipitation 37.08  
Wind
Wind Speed 2 mph   
Max Wind Speed 9 mph   
Max Gust Speed mph   
Visibility 10 miles   
Events Rain   

Key: T is trace of precipitation, MM is missing value
Source: NWS Daily Summary
Time(PST)TemperatureDew PointHumidity Pressure Visibility Wind DirectionWind SpeedGust SpeedPrecipitationEvents Conditions
12:07 AM 41.0°F 39.2°F 93% 30.06 in 10.0 miles Calm Calm - 0.02 in Rain Light Rain
12:53 AM 41.0°F 41.0°F 100% 30.06 in 10.0 miles Calm Calm - 0.10 in Rain Light Rain
1:53 AM 42.1°F 41.0°F 96% 30.06 in 8.0 miles North 3.5 mph - 0.08 in Rain Light Rain
2:22 AM 42.8°F 41.0°F 93% 30.05 in 10.0 miles NW 4.6 mph - 0.03 in Rain Light Rain
2:53 AM 42.1°F 41.0°F 96% 30.07 in 10.0 miles Calm Calm - 0.06 in Rain Light Rain
3:10 AM 42.8°F 41.0°F 93% 30.06 in 10.0 miles Calm Calm - 0.03 in Rain Light Rain
3:18 AM 42.8°F 41.0°F 93% 30.05 in 10.0 miles Calm Calm - 0.05 in Rain Light Rain
3:46 AM 42.8°F 41.0°F 93% 30.05 in 10.0 miles Calm Calm - 0.11 in Rain Light Rain
3:53 AM 42.1°F 42.1°F 100% 30.07 in 10.0 miles Calm Calm - 0.11 in Rain Light Rain
4:29 AM 42.8°F 42.8°F 100% 30.06 in 10.0 miles Calm Calm - 0.02 in Rain Light Rain
4:53 AM 42.1°F 42.1°F 100% 30.07 in 10.0 miles NNW 4.6 mph - 0.03 in Rain Light Rain
5:53 AM 42.1°F 42.1°F 100% 30.08 in 10.0 miles NNW 4.6 mph - 0.06 in Rain Light Rain
6:53 AM 43.0°F 42.1°F 97% 30.09 in 10.0 miles SW 3.5 mph - 0.00 in   Overcast
7:32 AM 42.8°F 42.8°F 100% 30.09 in 10.0 miles Calm Calm - N/A   Overcast
7:53 AM 43.0°F 42.1°F 97% 30.11 in 10.0 miles Calm Calm - N/A   Overcast
8:53 AM 45.0°F 44.1°F 97% 30.12 in 10.0 miles SSW 3.5 mph - N/A   Overcast
9:33 AM 46.4°F 46.4°F 100% 30.11 in 10.0 miles SW 3.5 mph - N/A   Overcast
9:53 AM 46.9°F 46.9°F 100% 30.12 in 10.0 miles SW 6.9 mph - N/A   Overcast
10:51 AM 48.2°F 48.2°F 100% 30.12 in 10.0 miles SSW 9.2 mph - N/A   Overcast
10:53 AM 48.9°F 48.0°F 97% 30.14 in 10.0 miles SSW 8.1 mph - N/A   Overcast
11:53 AM 50.0°F 48.0°F 93% 30.14 in 10.0 miles SW 6.9 mph - N/A   Overcast
12:53 PM 51.1°F 48.9°F 92% 30.14 in 10.0 miles WSW 6.9 mph - N/A   Overcast
1:21 PM 51.8°F 48.2°F 88% 30.13 in 10.0 miles SW 6.9 mph - N/A   Overcast
1:53 PM 52.0°F 48.9°F 89% 30.14 in 10.0 miles SW 6.9 mph - N/A   Overcast
2:37 PM 51.8°F 48.2°F 88% 30.13 in 10.0 miles West 5.8 mph - N/A   Overcast
2:51 PM 51.8°F 48.2°F 88% 30.13 in 10.0 miles SW 4.6 mph - 0.00 in Rain Light Rain
2:53 PM 52.0°F 48.9°F 89% 30.14 in 10.0 miles SW 4.6 mph - 0.00 in Rain Light Rain
3:53 PM 51.1°F 48.9°F 92% 30.15 in 10.0 miles Calm Calm - 0.00 in   Overcast
4:40 PM 50.0°F 48.2°F 94% 30.14 in 9.0 miles Calm Calm - N/A   Mostly Cloudy
4:49 PM 50.0°F 48.2°F 94% 30.14 in 10.0 miles Calm Calm - N/A   Mostly Cloudy
4:53 PM 50.0°F 48.0°F 93% 30.15 in 10.0 miles SW 3.5 mph - N/A   Mostly Cloudy
5:44 PM 48.2°F 48.2°F 100% 30.15 in 10.0 miles Calm Calm - N/A   Overcast
5:53 PM 48.9°F 48.0°F 97% 30.16 in 10.0 miles Calm Calm - N/A   Overcast
6:53 PM 50.0°F 48.0°F 93% 30.17 in 10.0 miles SSW 8.1 mph - 0.00 in   Overcast
7:16 PM 48.2°F 48.2°F 100% 30.16 in 10.0 miles South 3.5 mph - N/A   Overcast
7:43 PM 48.2°F 48.2°F 100% 30.17 in 10.0 miles SSE 3.5 mph - 0.00 in Rain Light Rain
7:53 PM 48.9°F 48.0°F 97% 30.18 in 10.0 miles South 3.5 mph - 0.00 in   Overcast
8:09 PM 48.2°F 48.2°F 100% 30.17 in 10.0 miles Calm Calm - N/A   Overcast
8:53 PM 48.0°F 46.9°F 96% 30.19 in 10.0 miles Calm Calm - N/A   Overcast
9:04 PM 48.2°F 46.4°F 93% 30.17 in 10.0 miles SSE 3.5 mph - N/A   Overcast
9:53 PM 46.9°F 46.9°F 100% 30.19 in 10.0 miles South 4.6 mph - N/A   Overcast
10:53 PM 48.0°F 46.9°F 96% 30.20 in 10.0 miles SE 3.5 mph - 0.01 in   Overcast
11:33 PM 46.4°F 46.4°F 100% 30.19 in 10.0 miles SE 4.6 mph - N/A   Overcast
11:53 PM 48.0°F 46.9°F 96% 30.20 in 10.0 miles SE 3.5 mph - N/A   Overcast
Moon Phase
Nov. 12 Nov. 13 Nov. 20 Nov. 28 Dec. 06
Sunrise:07:13 AM (PST) Moon Rise:05:42 AM (PST)11/12
Sunset:04:39 PM (PST) Moon Set:03:50 PM (PST)11/12

Copyright © 2014 The Weather Underground, Inc.